Regional Weather Roundup
Issued by NWS

Home | Current Version | Previous Version | Text Only | Print | Product List | Glossary On
Versions: 1 2 3 4 5 6 7 8 9 10 11 12 13 14 15 16 17 18 19 20 21 22 23 24 25 26 27 28 29 30 31 32 33 34 35 36 37 38 39 40 41 42 43 44 45 46 47 48 49 50
000
ASUS46 KLOX 291212
RWRCA

SOUTHERN CALIFORNIA WEATHER ROUNDUP
NATIONAL WEATHER SERVICE OXNARD CALIFORNIA
500 AM PDT SUN MAR 29 2015

NOTE: "FAIR" INDICATES FEW OR NO CLOUDS BELOW 12,000 FEET WITH NO
SIGNIFICANT WEATHER AND/OR OBSTRUCTIONS TO VISIBILITY.

  -  STATIONS PRECEEDED BY AN ASTERISK (*) ARE NOT NWS OR FAA
     STATIONS AND ARE NOT SUBJECT TO NWS AND FAA QUALITY CONTROL.

CAZ041-042-087-291300-
LA AND ORANGE COUNTY COASTAL AREAS


CITY           SKY/WX    TMP DP  RH WIND       PRES   REMARKS
L.A. DOWNTOWN  FOG       57  56  96 CALM      30.03R VSB 1/4
L.A. AIRPORT   FOG       56  56 100 W7        30.04S VSB 1/4
LONG BEACH     CLOUDY    60  58  92 CALM      30.03S FOG

CITY           SKY/WX    TMP DP  RH WIND       PRES   REMARKS
AVALON           N/A     55 N/A N/A MISG        N/A
FULLERTON      CLOUDY    61  58  90 SW5       30.03R FOG
*GETTY CENTER    N/A    N/A N/A N/A W1          N/A
HAWTHORNE        N/A     59  58  96 SW3       30.04R VSB 1/2
*LOS ALAMITOS  CLOUDY    59  59 100 S6        30.03R
*REDONDO BEACH   N/A     58  56  92 CALM      30.03F
SANTA ANA      CLOUDY    61  57  87 CALM      30.03R
STA MONICA APT CLOUDY    57  56  96 SW3       30.04R
*STA MON PIER    N/A     57  55  94 NE1       30.03
*UCLA            N/A     55  50  82 SW1       30.01S

$$

CAZ547-548-048-291300-
LA COUNTY VALLEYS AND INLAND EMPIRE


CITY           SKY/WX    TMP DP  RH WIND       PRES   REMARKS
BURBANK        CLEAR     58  40  51 CALM      30.02S
VAN NUYS       CLEAR     56  43  61 CALM      30.03R

CITY           SKY/WX    TMP DP  RH WIND       PRES   REMARKS
CORONA AIRPORT SUNNY     44  41  89 CALM      30.03S
*CHATSWORTH      N/A     55  38  54 CALM      30.02R
CHINO          CLEAR     54  48  80 CALM      30.03S
MARCH AFB      CLEAR     45  29  53 VRB1      30.03S
*NORTHRIDGE      N/A     54  39  58 CALM        N/A
ONTARIO        MOCLDY    57  40  52 CALM      30.02S
*PASADENA        N/A     59  37  44 CALM        N/A
RIVERSIDE      CLEAR     58  42  55 SE3       30.03R
SAN BERNARDINO NOT AVBL
*WHITEMAN AP   NOT AVBL
*WOODLAND HILL   N/A     50  41  71 SE1         N/A

$$

CAZ054-055-291300-
LA AND SAN BERNARDINO COUNTY MOUNTAINS


CITY           SKY/WX    TMP DP  RH WIND       PRES   REMARKS
*BIG BEAR AIRP SUNNY     30  12  47 CALM      30.28S
*CHILAO          N/A     56   9  15 E6          N/A
MT WILSON NWS    N/A     55   9  15 SW6         N/A
SANDBERG       CLEAR     56  37  49 N15       30.16S
*WARM SPRINGS    N/A     60  28  29 W10G22      N/A

$$

CAZ028-029-059-060-099-291300-
ANTELOPE VALLEY AND SURROUNDING AREAS


CITY           SKY/WX    TMP DP  RH WIND       PRES   REMARKS
LANCASTER      CLEAR     50  28  42 SE6       30.09R
PALMDALE       CLEAR     47  25  42 S7        30.10R

CITY           SKY/WX    TMP DP  RH WIND       PRES   REMARKS
29 PALMS       PTCLDY    64  23  21 W10       30.10S
BARSTOW/DAGGET CLEAR     59  30  33 W10       30.05F
BISHOP         CLEAR     47  16  29 W9        30.17S
CHINA LAKE     CLEAR     50  28  42 CALM      30.05S
EDWARDS AFB    CLEAR     49  35  57 SW10      30.07R
MOJAVE         FAIR      59  36  41 CALM      30.09S
NEEDLES        CLEAR     64  24  21 NW5       29.97R
VICTORVILLE    CLEAR     52  23  32 S3        30.10S

$$

CAZ039-040-291300-
VENTURA AND SANTA BARBARA COUNTY COAST


CITY           SKY/WX    TMP DP  RH WIND       PRES   REMARKS
CAMARILLO      FOG       55  53  93 CALM      30.03R VSB 1/4
NWS OXNARD       N/A     56  52  89 CALM      30.02S
OXNARD AIRPORT FOG       54  52  93 NE6       30.03R VSB 1/2
*POINT MUGU    FOG       57  54  89 NE5       30.03F VSB 1/2
SBA APT/GOLETA FOG       57  56  96 CALM      30.01F VSB 3/4
*SANTA BARBARA   N/A     59  54  84 CALM      30.10S
*VENTURA         N/A     51  42  71 CALM      30.05S

$$

CAZ044-045-291300-
VENTURA COUNTY VALLEYS


CITY           SKY/WX    TMP DP  RH WIND       PRES   REMARKS
*SIMI VALLEY     N/A     52  41  64 CALM      29.98S
*OJAI            N/A     43  38  83 CALM      29.99R
*FILLMORE        N/A     47  42  82 CALM      29.93S

$$

CAZ053-291300-
VENTURA COUNTY MOUNTAINS


CITY           SKY/WX    TMP DP  RH WIND       PRES   REMARKS
*LOCKWOOD VLY    N/A     34  23  64 MISG        N/A
*ROSE VALLEY     N/A     34  32  93 MISG        N/A

$$

CAZ034-035-036-291300-
CENTRAL COAST AND SANTA YNEZ VALLEY


CITY           SKY/WX    TMP DP  RH WIND       PRES   REMARKS
SAN LUIS OBISP CLEAR     57  45  64 VRB5      30.02F
SANTA MARIA    CLEAR     53  48  83 E3        30.04S

CITY           SKY/WX    TMP DP  RH WIND       PRES   REMARKS
*CAL POLY SLO    N/A     68  43  40 NE9         N/A
*LOMPOC        CLEAR     46  41  81 NE5       30.03F
*PISMO BEACH     N/A     58  49  73 CALM      30.03S
*SANTA YNEZ    FAIR      48  43  81 CALM      30.04S

$$

CAZ037-038-051-291300-
SAN LUIS OBISPO COUNTY INTERIOR AND CUYAMA VALLEY


CITY           SKY/WX    TMP DP  RH WIND       PRES   REMARKS
*CUYAMA          N/A     49  39  66 CALM      30.06S
PASO ROBLES    CLEAR     47  41  80 CALM      30.09F

$$

CAZ032-033-061-291300-
SOUTHERN DESERTS


CITY           SKY/WX    TMP DP  RH WIND       PRES   REMARKS
BLYTHE         PTCLDY    65  31  28 N7        29.93S
IMPERIAL       PTCLDY    66  29  24 CALM      29.89F
PALM SPRINGS   PTCLDY    70  39  32 CALM      29.95R
THERMAL        PTCLDY    62  36  37 N3        29.89S

$$

ELSEWHERE ACROSS THE WESTERN UNITED STATES AND MEXICO


CITY           SKY/WX    TMP DP  RH WIND       PRES   REMARKS
DENVER, CO     PTCLDY    36  28  73 E12       30.19R WCI  28
GRAND CANYON,  PTCLDY    27  19  72 E3        30.29S
HONOLULU, HI   MOCLDY    70  70 100 N5        30.12F
KAHULUI, MAUI  CLEAR     66  63  88 SE6       30.13F
LAKE TAHOE, CA CLEAR     30  22  72 S5        30.29S WCI  25
LAS VEGAS, NV  CLEAR     65  21  18 SW6       30.00R
MAMMOTH LAKES, NOT AVBL
MEXICO CITY, M CLOUDY    52  46  82 E5        30.44R
PHOENIX, AZ    PTCLDY    67  30  25 E5        29.98R
PORTLAND, OR   CLOUDY    48  45  89 E3        30.31S
RENO, NV       PTCLDY    42  19  39 N5        30.26S
SALT LAKE CITY CLEAR     40  27  59 CALM      30.29R
SAN DIEGO, CA  CLOUDY    62  57  83 W3        30.04S
SAN FRANCISCO, PTCLDY    53  52  96 W13       30.11S
SAN JOSE, CA   CLEAR     50  44  80 CALM      30.11R
SEATTLE, WA    MOCLDY    50  42  74 CALM      30.28F
TIJUANA, MEX   FOG       59  57  94 NW3       30.05S VSB 1

$$

STATION/POSITION TIME  TEMP    WIND        PRES    VSBY  WAVE
                       AIR SEA DIR/SP/G                  HT/PER
                 (UTC) (F)     (DEG/KT/KT) (MB)    (MI)  (FT/S)
POINT ARGUELLO B NOT AVBL
WEST SANTA BARBA 1200   59 59   40/  4/  4 1015.6F         8/10
POINT CONCEPTION NOT AVBL
EAST SANTA BARBA NOT AVBL
SANTA MONICA BAY 1200   60 63  210/  2/  4 1016.7F         4/17


USA.gov is the U.S. government's official web portal to all federal, state and local government web resources and services.